TimeEST,TemperatureF,Dew PointF,Humidity,Sea Level PressureIn,VisibilityMPH,Wind Direction,Wind SpeedMPH,Gust SpeedMPH,PrecipitationIn,Events,Conditions,WindDirDegrees,DateUTC
12:07 AM,42.8,42.8,100,29.97,1.2,Calm,Calm,-,N/A,,Clear,0,2013-01-12 05:07:00
12:20 AM,41.0,41.0,100,29.97,0.8,Calm,Calm,-,N/A,,Clear,0,2013-01-12 05:20:00
12:28 AM,42.8,42.8,100,29.97,2.0,Calm,Calm,-,N/A,,Clear,0,2013-01-12 05:28:00
12:36 AM,42.8,42.8,100,29.97,1.2,Calm,Calm,-,N/A,,Clear,0,2013-01-12 05:36:00
12:53 AM,43.0,43.0,100,29.97,3.0,Calm,Calm,-,N/A,,Clear,0,2013-01-12 05:53:00
1:01 AM,42.8,42.8,100,29.98,1.5,Calm,Calm,-,N/A,,Clear,0,2013-01-12 06:01:00
1:09 AM,41.0,41.0,100,29.98,0.5,Calm,Calm,-,N/A,Fog,Fog,0,2013-01-12 06:09:00
1:21 AM,41.0,41.0,100,29.98,1.2,Calm,Calm,-,N/A,,Clear,0,2013-01-12 06:21:00
1:34 AM,41.0,41.0,100,29.97,0.5,Calm,Calm,-,N/A,Fog,Fog,0,2013-01-12 06:34:00
1:53 AM,42.1,42.1,100,29.98,0.8,Calm,Calm,-,N/A,,Clear,0,2013-01-12 06:53:00
2:03 AM,39.2,39.2,100,29.98,0.2,Calm,Calm,-,N/A,Fog,Fog,0,2013-01-12 07:03:00
2:13 AM,41.0,41.0,100,29.98,0.8,Calm,Calm,-,N/A,,Mist,0,2013-01-12 07:13:00
2:19 AM,42.8,42.8,100,29.98,1.0,Calm,Calm,-,N/A,,Scattered Clouds,0,2013-01-12 07:19:00
2:41 AM,41.0,41.0,100,29.99,0.8,Calm,Calm,-,N/A,,Mist,0,2013-01-12 07:41:00
2:53 AM,41.0,41.0,100,29.99,2.5,Calm,Calm,-,N/A,,Mostly Cloudy,0,2013-01-12 07:53:00
3:00 AM,41.0,41.0,100,29.99,7.0,Calm,Calm,-,N/A,,Mostly Cloudy,0,2013-01-12 08:00:00
3:12 AM,42.8,42.8,100,29.99,1.8,Calm,Calm,-,N/A,,Mostly Cloudy,0,2013-01-12 08:12:00
3:17 AM,41.0,41.0,100,29.99,0.8,Calm,Calm,-,N/A,,Mist,0,2013-01-12 08:17:00
3:40 AM,42.8,42.8,100,29.99,2.0,Calm,Calm,-,N/A,,Mostly Cloudy,0,2013-01-12 08:40:00
3:49 AM,42.8,42.8,100,29.99,4.0,Calm,Calm,-,N/A,,Overcast,0,2013-01-12 08:49:00
3:53 AM,43.0,43.0,100,29.99,7.0,Calm,Calm,-,N/A,,Overcast,0,2013-01-12 08:53:00
4:50 AM,42.8,42.8,100,29.99,10.0,Calm,Calm,-,N/A,,Mostly Cloudy,0,2013-01-12 09:50:00
4:53 AM,42.1,42.1,100,29.99,10.0,Calm,Calm,-,N/A,,Mostly Cloudy,0,2013-01-12 09:53:00
5:29 AM,42.8,42.8,100,29.98,2.0,Calm,Calm,-,N/A,,Overcast,0,2013-01-12 10:29:00
5:38 AM,42.8,42.8,100,29.98,7.0,Calm,Calm,-,N/A,,Overcast,0,2013-01-12 10:38:00
5:53 AM,44.1,44.1,100,29.99,9.0,Calm,Calm,-,N/A,,Overcast,0,2013-01-12 10:53:00
6:53 AM,43.0,43.0,100,30.01,10.0,Calm,Calm,-,N/A,,Overcast,0,2013-01-12 11:53:00
7:53 AM,43.0,43.0,100,30.03,10.0,Calm,Calm,-,N/A,,Scattered Clouds,0,2013-01-12 12:53:00
8:53 AM,45.0,45.0,100,30.05,5.0,Calm,Calm,-,N/A,Fog,Patches of Fog,0,2013-01-12 13:53:00
9:53 AM,51.1,51.1,100,30.05,7.0,Calm,Calm,-,N/A,,Clear,0,2013-01-12 14:53:00
10:53 AM,55.0,55.0,100,30.04,8.0,Calm,Calm,-,N/A,,Scattered Clouds,0,2013-01-12 15:53:00
11:53 AM,60.1,57.9,93,30.02,10.0,Calm,Calm,-,N/A,,Scattered Clouds,0,2013-01-12 16:53:00
12:53 PM,64.9,60.1,84,30.00,10.0,SSE,4.6,-,N/A,,Overcast,160,2013-01-12 17:53:00
1:13 PM,64.4,60.8,88,29.99,10.0,SW,3.5,-,N/A,,Overcast,230,2013-01-12 18:13:00
1:53 PM,64.0,60.1,87,29.99,10.0,Calm,Calm,-,N/A,,Overcast,0,2013-01-12 18:53:00
2:53 PM,63.0,59.0,87,29.99,10.0,Calm,Calm,-,N/A,,Overcast,0,2013-01-12 19:53:00
3:24 PM,62.6,60.8,94,29.98,10.0,Calm,Calm,-,N/A,,Overcast,0,2013-01-12 20:24:00
3:53 PM,64.0,60.1,87,29.97,10.0,East,4.6,-,N/A,,Scattered Clouds,100,2013-01-12 20:53:00
4:53 PM,62.1,59.0,90,29.94,10.0,North,5.8,-,N/A,,Overcast,10,2013-01-12 21:53:00
5:35 PM,60.8,57.2,88,29.93,8.0,Calm,Calm,-,N/A,,Overcast,0,2013-01-12 22:35:00
5:53 PM,61.0,59.0,93,29.94,10.0,Calm,Calm,-,0.00,,Overcast,0,2013-01-12 22:53:00
6:53 PM,60.1,60.1,100,29.92,8.0,SE,3.5,-,N/A,,Overcast,140,2013-01-12 23:53:00
7:53 PM,63.0,61.0,93,29.89,10.0,Variable,4.6,-,N/A,,Overcast,0,2013-01-13 00:53:00
8:53 PM,64.0,62.1,93,29.88,10.0,South,11.5,-,N/A,,Overcast,180,2013-01-13 01:53:00
9:53 PM,64.9,62.1,90,29.86,10.0,SSW,13.8,18.4,N/A,,Overcast,200,2013-01-13 02:53:00
10:00 PM,64.4,62.6,94,29.86,9.0,South,16.1,23.0,0.00,Rain,Light Rain,180,2013-01-13 03:00:00
10:35 PM,64.4,62.6,94,29.84,10.0,South,16.1,-,0.00,,Mostly Cloudy,180,2013-01-13 03:35:00
10:53 PM,64.9,62.1,90,29.83,10.0,South,15.0,20.7,0.00,,Overcast,170,2013-01-13 03:53:00
11:53 PM,64.0,61.0,90,29.83,10.0,South,13.8,-,N/A,,Overcast,190,2013-01-13 04:53:00